Time,TemperatureF,DewpointF,PressureIn,WindDirection,WindDirectionDegrees,WindSpeedMPH,WindSpeedGustMPH,Humidity,HourlyPrecipIn,Conditions,Clouds,dailyrainin,SoftwareType,DateUTC
2013-01-28 00:02:00,56.0,-99.9,-100.00,SE,128,0.0,-999.0,-999,0.00,,,-99.99,,2013-01-28 06:02:00,
2013-01-28 00:12:00,56.0,-99.9,-100.00,SE,128,0.0,-999.0,-999,0.00,,,-99.99,,2013-01-28 06:12:00,
2013-01-28 00:22:00,55.0,-99.9,-100.00,SE,128,0.0,-999.0,-999,0.00,,,-99.99,,2013-01-28 06:22:00,
2013-01-28 00:33:00,55.0,-99.9,-100.00,SE,128,0.0,-999.0,-999,0.00,,,-99.99,,2013-01-28 06:33:00,
2013-01-28 00:42:00,55.0,-99.9,-100.00,SE,128,0.0,-999.0,-999,0.00,,,-99.99,,2013-01-28 06:42:00,
2013-01-28 00:52:00,54.0,-99.9,-100.00,SE,128,0.0,-999.0,-999,0.00,,,-99.99,,2013-01-28 06:52:00,
2013-01-28 01:03:00,55.0,-99.9,-100.00,SE,128,0.0,-999.0,-999,0.00,,,-99.99,,2013-01-28 07:03:00,
2013-01-28 01:11:00,55.0,-99.9,-100.00,SE,128,0.0,-999.0,-999,0.00,,,-99.99,,2013-01-28 07:11:00,
2013-01-28 01:22:00,55.0,-99.9,-100.00,SE,128,0.0,-999.0,-999,0.00,,,-99.99,,2013-01-28 07:22:00,
2013-01-28 01:32:00,55.0,-99.9,-100.00,ENE,72,3.0,-999.0,-999,0.00,,,-99.99,,2013-01-28 07:32:00,
2013-01-28 01:42:00,55.0,-99.9,-100.00,ENE,72,3.0,-999.0,-999,0.00,,,-99.99,,2013-01-28 07:42:00,
2013-01-28 01:52:00,56.0,-99.9,-100.00,NE,41,0.0,-999.0,-999,0.00,,,-99.99,,2013-01-28 07:52:00,
2013-01-28 02:01:00,57.0,-99.9,-100.00,East,82,5.0,-999.0,-999,0.00,,,-99.99,,2013-01-28 08:01:00,
2013-01-28 02:11:00,57.0,-99.9,-100.00,East,83,6.0,-999.0,-999,0.00,,,-99.99,,2013-01-28 08:11:00,
2013-01-28 02:22:00,57.0,-99.9,-100.00,East,83,6.0,-999.0,-999,0.00,,,-99.99,,2013-01-28 08:22:00,
2013-01-28 02:32:00,58.0,-99.9,-100.00,East,93,5.0,-999.0,-999,0.00,,,-99.99,,2013-01-28 08:32:00,
2013-01-28 02:42:00,58.0,-99.9,-100.00,East,93,5.0,-999.0,-999,0.00,,,-99.99,,2013-01-28 08:42:00,
2013-01-28 02:53:00,58.0,-99.9,-100.00,East,94,0.0,-999.0,-999,0.00,,,-99.99,,2013-01-28 08:53:00,
2013-01-28 03:02:00,57.0,-99.9,-100.00,ENE,70,0.0,-999.0,-999,0.00,,,-99.99,,2013-01-28 09:02:00,
2013-01-28 03:12:00,57.0,-99.9,-100.00,ENE,70,0.0,-999.0,-999,0.00,,,-99.99,,2013-01-28 09:12:00,
2013-01-28 03:22:00,56.0,-99.9,-100.00,ENE,70,0.0,-999.0,-999,0.00,,,-99.99,,2013-01-28 09:22:00,
2013-01-28 03:33:00,56.0,-99.9,-100.00,ENE,70,0.0,-999.0,-999,0.00,,,-99.99,,2013-01-28 09:33:00,
2013-01-28 03:42:00,56.0,-99.9,-100.00,ENE,70,0.0,-999.0,-999,0.00,,,-99.99,,2013-01-28 09:42:00,
2013-01-28 03:52:00,57.0,-99.9,-100.00,ENE,75,4.0,-999.0,-999,0.00,,,-99.99,,2013-01-28 09:52:00,
2013-01-28 04:02:00,57.0,-99.9,-100.00,East,79,4.0,-999.0,-999,0.00,,,-99.99,,2013-01-28 10:02:00,
2013-01-28 04:11:00,57.0,-99.9,-100.00,East,79,4.0,-999.0,-999,0.00,,,-99.99,,2013-01-28 10:11:00,
2013-01-28 04:21:00,56.0,-99.9,-100.00,NE,39,2.0,-999.0,-999,0.00,,,-99.99,,2013-01-28 10:21:00,
2013-01-28 04:32:00,56.0,-99.9,-100.00,NE,46,0.0,-999.0,-999,0.00,,,-99.99,,2013-01-28 10:32:00,
2013-01-28 04:42:00,56.0,-99.9,-100.00,NE,46,0.0,-999.0,-999,0.00,,,-99.99,,2013-01-28 10:42:00,
2013-01-28 04:52:00,56.0,-99.9,-100.00,NE,42,0.0,-999.0,-999,0.00,,,-99.99,,2013-01-28 10:52:00,
2013-01-28 05:03:00,56.0,-99.9,-100.00,NE,42,0.0,-999.0,-999,0.00,,,-99.99,,2013-01-28 11:03:00,
2013-01-28 05:12:00,56.0,-99.9,-100.00,NE,42,0.0,-999.0,-999,0.00,,,-99.99,,2013-01-28 11:12:00,
2013-01-28 05:22:00,55.0,-99.9,-100.00,NE,42,0.0,-999.0,-999,0.00,,,-99.99,,2013-01-28 11:22:00,
2013-01-28 05:33:00,54.0,-99.9,-100.00,NE,42,0.0,-999.0,-999,0.00,,,-99.99,,2013-01-28 11:33:00,
2013-01-28 05:42:00,54.0,-99.9,-100.00,NE,42,0.0,-999.0,-999,0.00,,,-99.99,,2013-01-28 11:42:00,
2013-01-28 05:53:00,54.0,-99.9,-100.00,NE,42,0.0,-999.0,-999,0.00,,,-99.99,,2013-01-28 11:53:00,
2013-01-28 06:04:00,54.0,-99.9,-100.00,NE,42,0.0,-999.0,-999,0.00,,,-99.99,,2013-01-28 12:04:00,
2013-01-28 06:12:00,54.0,-99.9,-100.00,NE,42,0.0,-999.0,-999,0.00,,,-99.99,,2013-01-28 12:12:00,
2013-01-28 06:23:00,53.0,-99.9,-100.00,NE,42,0.0,-999.0,-999,0.00,,,-99.99,,2013-01-28 12:23:00,
2013-01-28 06:33:00,53.0,-99.9,-100.00,NE,42,0.0,-999.0,-999,0.00,,,-99.99,,2013-01-28 12:33:00,
2013-01-28 06:43:00,53.0,-99.9,-100.00,NE,42,0.0,-999.0,-999,0.00,,,-99.99,,2013-01-28 12:43:00,
2013-01-28 06:53:00,53.0,-99.9,-100.00,NE,42,0.0,-999.0,-999,0.00,,,-99.99,,2013-01-28 12:53:00,
2013-01-28 07:03:00,55.0,-99.9,-100.00,NE,42,0.0,-999.0,-999,0.00,,,-99.99,,2013-01-28 13:03:00,
2013-01-28 07:12:00,55.0,-99.9,-100.00,NE,42,0.0,-999.0,-999,0.00,,,-99.99,,2013-01-28 13:12:00,
2013-01-28 07:23:00,56.0,-99.9,-100.00,NE,42,0.0,-999.0,-999,0.00,,,-99.99,,2013-01-28 13:23:00,
2013-01-28 07:34:00,57.0,-99.9,-100.00,NE,45,3.0,-999.0,-999,0.00,,,-99.99,,2013-01-28 13:34:00,
2013-01-28 07:43:00,57.0,-99.9,-100.00,NE,45,3.0,-999.0,-999,0.00,,,-99.99,,2013-01-28 13:43:00,
2013-01-28 07:53:00,57.0,-99.9,-100.00,NE,56,3.0,-999.0,-999,0.00,,,-99.99,,2013-01-28 13:53:00,
2013-01-28 08:03:00,58.0,-99.9,-100.00,ENE,65,7.0,-999.0,-999,0.00,,,-99.99,,2013-01-28 14:03:00,
2013-01-28 08:12:00,58.0,-99.9,-100.00,ENE,65,7.0,-999.0,-999,0.00,,,-99.99,,2013-01-28 14:12:00,
2013-01-28 08:23:00,59.0,-99.9,-100.00,ENE,70,7.0,-999.0,-999,0.00,,,-99.99,,2013-01-28 14:23:00,
2013-01-28 08:33:00,60.0,-99.9,-100.00,NE,44,0.0,-999.0,-999,0.00,,,-99.99,,2013-01-28 14:33:00,
2013-01-28 08:43:00,60.0,-99.9,-100.00,NE,44,0.0,-999.0,-999,0.00,,,-99.99,,2013-01-28 14:43:00,
2013-01-28 08:53:00,62.0,-99.9,-100.00,NE,44,0.0,-999.0,-999,0.00,,,-99.99,,2013-01-28 14:53:00,
2013-01-28 09:03:00,65.0,-99.9,-100.00,NE,44,0.0,-999.0,-999,0.00,,,-99.99,,2013-01-28 15:03:00,
2013-01-28 09:13:00,65.0,-99.9,-100.00,NE,44,0.0,-999.0,-999,0.00,,,-99.99,,2013-01-28 15:13:00,
2013-01-28 09:24:00,63.0,-99.9,-100.00,ENE,75,0.0,-999.0,-999,0.00,,,-99.99,,2013-01-28 15:24:00,
2013-01-28 09:34:00,67.0,-99.9,-100.00,East,86,7.0,-999.0,-999,0.00,,,-99.99,,2013-01-28 15:34:00,
2013-01-28 09:44:00,67.0,-99.9,-100.00,East,86,7.0,-999.0,-999,0.00,,,-99.99,,2013-01-28 15:44:00,
2013-01-28 09:54:00,68.0,-99.9,-100.00,East,96,6.0,-999.0,-999,0.00,,,-99.99,,2013-01-28 15:54:00,
2013-01-28 10:04:00,69.0,-99.9,-100.00,ESE,115,7.0,-999.0,-999,0.00,,,-99.99,,2013-01-28 16:04:00,
2013-01-28 10:13:00,69.0,-99.9,-100.00,ESE,115,7.0,-999.0,-999,0.00,,,-99.99,,2013-01-28 16:13:00,
2013-01-28 10:22:00,69.0,-99.9,-100.00,SSE,162,6.0,-999.0,-999,0.00,,,-99.99,,2013-01-28 16:22:00,
2013-01-28 10:33:00,68.0,-99.9,-100.00,SSE,156,6.0,-999.0,-999,0.00,,,-99.99,,2013-01-28 16:33:00,
2013-01-28 10:43:00,68.0,-99.9,-100.00,SSE,156,6.0,-999.0,-999,0.00,,,-99.99,,2013-01-28 16:43:00,
2013-01-28 10:53:00,69.0,-99.9,-100.00,SSE,153,7.0,-999.0,-999,0.00,,,-99.99,,2013-01-28 16:53:00,
2013-01-28 11:02:00,69.0,-99.9,-100.00,SE,136,9.0,-999.0,-999,0.00,,,-99.99,,2013-01-28 17:02:00,
2013-01-28 11:12:00,69.0,-99.9,-100.00,SE,136,9.0,-999.0,-999,0.00,,,-99.99,,2013-01-28 17:12:00,
2013-01-28 11:23:00,72.0,-99.9,-100.00,SE,136,12.0,-999.0,-999,0.00,,,-99.99,,2013-01-28 17:23:00,
2013-01-28 11:33:00,72.0,-99.9,-100.00,South,174,9.0,-999.0,-999,0.00,,,-99.99,,2013-01-28 17:33:00,
2013-01-28 11:42:00,72.0,-99.9,-100.00,South,174,9.0,-999.0,-999,0.00,,,-99.99,,2013-01-28 17:42:00,
2013-01-28 11:53:00,73.0,-99.9,-100.00,South,172,7.0,-999.0,-999,0.00,,,-99.99,,2013-01-28 17:53:00,
2013-01-28 12:03:00,72.0,-99.9,-100.00,SSE,160,10.0,-999.0,-999,0.00,,,-99.99,,2013-01-28 18:03:00,
2013-01-28 12:13:00,72.0,-99.9,-100.00,SSE,160,10.0,-999.0,-999,0.00,,,-99.99,,2013-01-28 18:13:00,
2013-01-28 12:23:00,73.0,-99.9,-100.00,SSE,158,12.0,-999.0,-999,0.00,,,-99.99,,2013-01-28 18:23:00,
2013-01-28 12:33:00,71.0,-99.9,-100.00,SSE,149,13.0,-999.0,-999,0.00,,,-99.99,,2013-01-28 18:33:00,
2013-01-28 12:43:00,71.0,-99.9,-100.00,SSE,149,13.0,-999.0,-999,0.00,,,-99.99,,2013-01-28 18:43:00,
2013-01-28 12:53:00,72.0,-99.9,-100.00,South,169,11.0,-999.0,-999,0.00,,,-99.99,,2013-01-28 18:53:00,
2013-01-28 13:03:00,71.0,-99.9,-100.00,SE,132,10.0,-999.0,-999,0.00,,,-99.99,,2013-01-28 19:03:00,
2013-01-28 13:13:00,72.0,-99.9,-100.00,SSE,162,11.0,-999.0,-999,0.00,,,-99.99,,2013-01-28 19:13:00,
2013-01-28 13:23:00,72.0,-99.9,-100.00,SSE,162,11.0,-999.0,-999,0.00,,,-99.99,,2013-01-28 19:23:00,
2013-01-28 13:33:00,72.0,-99.9,-100.00,SSE,153,8.0,-999.0,-999,0.00,,,-99.99,,2013-01-28 19:33:00,
2013-01-28 13:43:00,72.0,-99.9,-100.00,SSE,153,8.0,-999.0,-999,0.00,,,-99.99,,2013-01-28 19:43:00,
2013-01-28 13:53:00,73.0,-99.9,-100.00,SSE,167,10.0,-999.0,-999,0.00,,,-99.99,,2013-01-28 19:53:00,
2013-01-28 14:03:00,73.0,-99.9,-100.00,SE,141,11.0,-999.0,-999,0.00,,,-99.99,,2013-01-28 20:03:00,
2013-01-28 14:12:00,73.0,-99.9,-100.00,SE,141,11.0,-999.0,-999,0.00,,,-99.99,,2013-01-28 20:12:00,
2013-01-28 14:22:00,72.0,-99.9,-100.00,SSE,155,11.0,-999.0,-999,0.00,,,-99.99,,2013-01-28 20:22:00,
2013-01-28 14:33:00,72.0,-99.9,-100.00,SE,139,10.0,-999.0,-999,0.00,,,-99.99,,2013-01-28 20:33:00,
2013-01-28 14:43:00,72.0,-99.9,-100.00,SE,139,10.0,-999.0,-999,0.00,,,-99.99,,2013-01-28 20:43:00,
2013-01-28 14:53:00,72.0,-99.9,-100.00,SSE,165,9.0,-999.0,-999,0.00,,,-99.99,,2013-01-28 20:53:00,
2013-01-28 15:04:00,71.0,-99.9,-100.00,SE,125,9.0,-999.0,-999,0.00,,,-99.99,,2013-01-28 21:04:00,
2013-01-28 15:12:00,71.0,-99.9,-100.00,SE,125,9.0,-999.0,-999,0.00,,,-99.99,,2013-01-28 21:12:00,
2013-01-28 15:23:00,69.0,-99.9,-100.00,SE,145,7.0,-999.0,-999,0.00,,,-99.99,,2013-01-28 21:23:00,
2013-01-28 15:34:00,68.0,-99.9,-100.00,SSE,156,7.0,-999.0,-999,0.00,,,-99.99,,2013-01-28 21:34:00,
2013-01-28 15:43:00,68.0,-99.9,-100.00,SSE,156,7.0,-999.0,-999,0.00,,,-99.99,,2013-01-28 21:43:00,
2013-01-28 15:53:00,68.0,-99.9,-100.00,SSE,148,10.0,-999.0,-999,0.00,,,-99.99,,2013-01-28 21:53:00,
2013-01-28 16:03:00,68.0,-99.9,-100.00,ESE,117,12.0,-999.0,-999,0.00,,,-99.99,,2013-01-28 22:03:00,
2013-01-28 16:12:00,68.0,-99.9,-100.00,ESE,117,12.0,-999.0,-999,0.00,,,-99.99,,2013-01-28 22:12:00,
2013-01-28 16:23:00,67.0,-99.9,-100.00,SE,132,10.0,-999.0,-999,0.00,,,-99.99,,2013-01-28 22:23:00,
2013-01-28 16:33:00,66.0,-99.9,-100.00,SE,127,8.0,-999.0,-999,0.00,,,-99.99,,2013-01-28 22:33:00,
2013-01-28 16:43:00,66.0,-99.9,-100.00,SE,127,8.0,-999.0,-999,0.00,,,-99.99,,2013-01-28 22:43:00,
2013-01-28 16:53:00,65.0,-99.9,-100.00,SE,142,7.0,-999.0,-999,0.00,,,-99.99,,2013-01-28 22:53:00,
2013-01-28 17:03:00,65.0,-99.9,-100.00,SE,125,8.0,-999.0,-999,0.00,,,-99.99,,2013-01-28 23:03:00,
2013-01-28 17:12:00,65.0,-99.9,-100.00,SE,125,8.0,-999.0,-999,0.00,,,-99.99,,2013-01-28 23:12:00,
2013-01-28 17:22:00,66.0,-99.9,-100.00,SE,125,5.0,-999.0,-999,0.00,,,-99.99,,2013-01-28 23:22:00,
2013-01-28 17:33:00,68.0,-99.9,-100.00,ESE,115,6.0,-999.0,-999,0.00,,,-99.99,,2013-01-28 23:33:00,
2013-01-28 17:42:00,68.0,-99.9,-100.00,ESE,115,6.0,-999.0,-999,0.00,,,-99.99,,2013-01-28 23:42:00,
2013-01-28 17:53:00,66.0,-99.9,-100.00,ESE,108,6.0,-999.0,-999,0.00,,,-99.99,,2013-01-28 23:53:00,
2013-01-28 18:03:00,66.0,-99.9,-100.00,SE,129,6.0,-999.0,-999,0.00,,,-99.99,,2013-01-29 00:03:00,
2013-01-28 18:13:00,66.0,-99.9,-100.00,SE,129,6.0,-999.0,-999,0.00,,,-99.99,,2013-01-29 00:13:00,
2013-01-28 18:22:00,67.0,-99.9,-100.00,East,96,9.0,-999.0,-999,0.00,,,-99.99,,2013-01-29 00:22:00,
2013-01-28 18:33:00,66.0,-99.9,-100.00,ESE,120,9.0,-999.0,-999,0.00,,,-99.99,,2013-01-29 00:33:00,
2013-01-28 18:42:00,66.0,-99.9,-100.00,ESE,120,9.0,-999.0,-999,0.00,,,-99.99,,2013-01-29 00:42:00,
2013-01-28 18:52:00,67.0,-99.9,-100.00,East,86,10.0,-999.0,-999,0.00,,,-99.99,,2013-01-29 00:52:00,
2013-01-28 19:02:00,66.0,-99.9,-100.00,East,98,8.0,-999.0,-999,0.00,,,-99.99,,2013-01-29 01:02:00,
2013-01-28 19:12:00,66.0,-99.9,-100.00,East,98,8.0,-999.0,-999,0.00,,,-99.99,,2013-01-29 01:12:00,
2013-01-28 19:23:00,65.0,-99.9,-100.00,East,97,7.0,-999.0,-999,0.00,,,-99.99,,2013-01-29 01:23:00,
2013-01-28 19:32:00,65.0,-99.9,-100.00,East,90,5.0,-999.0,-999,0.00,,,-99.99,,2013-01-29 01:32:00,
2013-01-28 19:42:00,65.0,-99.9,-100.00,East,90,5.0,-999.0,-999,0.00,,,-99.99,,2013-01-29 01:42:00,
2013-01-28 19:53:00,64.0,-99.9,-100.00,East,100,4.0,-999.0,-999,0.00,,,-99.99,,2013-01-29 01:53:00,
2013-01-28 20:02:00,64.0,-99.9,-100.00,East,83,3.0,-999.0,-999,0.00,,,-99.99,,2013-01-29 02:02:00,
2013-01-28 20:12:00,64.0,-99.9,-100.00,East,83,3.0,-999.0,-999,0.00,,,-99.99,,2013-01-29 02:12:00,
2013-01-28 20:22:00,64.0,-99.9,-100.00,East,98,7.0,-999.0,-999,0.00,,,-99.99,,2013-01-29 02:22:00,
2013-01-28 20:33:00,63.0,-99.9,-100.00,East,82,5.0,-999.0,-999,0.00,,,-99.99,,2013-01-29 02:33:00,
2013-01-28 20:42:00,63.0,-99.9,-100.00,East,82,5.0,-999.0,-999,0.00,,,-99.99,,2013-01-29 02:42:00,
2013-01-28 20:53:00,64.0,-99.9,-100.00,ESE,111,6.0,-999.0,-999,0.00,,,-99.99,,2013-01-29 02:53:00,
2013-01-28 21:03:00,65.0,-99.9,-100.00,ESE,118,8.0,-999.0,-999,0.00,,,-99.99,,2013-01-29 03:03:00,
2013-01-28 21:12:00,65.0,-99.9,-100.00,ESE,118,8.0,-999.0,-999,0.00,,,-99.99,,2013-01-29 03:12:00,
2013-01-28 21:22:00,65.0,-99.9,-100.00,East,82,8.0,-999.0,-999,0.00,,,-99.99,,2013-01-29 03:22:00,
2013-01-28 21:32:00,65.0,-99.9,-100.00,East,83,9.0,-999.0,-999,0.00,,,-99.99,,2013-01-29 03:32:00,
2013-01-28 21:42:00,65.0,-99.9,-100.00,East,83,9.0,-999.0,-999,0.00,,,-99.99,,2013-01-29 03:42:00,
2013-01-28 21:53:00,65.0,-99.9,-100.00,ESE,105,10.0,-999.0,-999,0.00,,,-99.99,,2013-01-29 03:53:00,
2013-01-28 22:03:00,65.0,-99.9,-100.00,East,94,11.0,-999.0,-999,0.00,,,-99.99,,2013-01-29 04:03:00,
2013-01-28 22:12:00,65.0,-99.9,-100.00,East,94,11.0,-999.0,-999,0.00,,,-99.99,,2013-01-29 04:12:00,
2013-01-28 22:22:00,65.0,-99.9,-100.00,East,93,7.0,-999.0,-999,0.00,,,-99.99,,2013-01-29 04:22:00,
2013-01-28 22:32:00,65.0,-99.9,-100.00,East,90,6.0,-999.0,-999,0.00,,,-99.99,,2013-01-29 04:32:00,
2013-01-28 22:42:00,65.0,-99.9,-100.00,East,90,6.0,-999.0,-999,0.00,,,-99.99,,2013-01-29 04:42:00,
2013-01-28 22:52:00,65.0,-99.9,-100.00,East,87,6.0,-999.0,-999,0.00,,,-99.99,,2013-01-29 04:52:00,
2013-01-28 23:04:00,65.0,-99.9,-100.00,ESE,105,4.0,-999.0,-999,0.00,,,-99.99,,2013-01-29 05:04:00,
2013-01-28 23:12:00,65.0,-99.9,-100.00,ESE,105,4.0,-999.0,-999,0.00,,,-99.99,,2013-01-29 05:12:00,
2013-01-28 23:22:00,65.0,-99.9,-100.00,SE,125,5.0,-999.0,-999,0.00,,,-99.99,,2013-01-29 05:22:00,
2013-01-28 23:32:00,65.0,-99.9,-100.00,SE,136,3.0,-999.0,-999,0.00,,,-99.99,,2013-01-29 05:32:00,
2013-01-28 23:43:00,65.0,-99.9,-100.00,SE,136,3.0,-999.0,-999,0.00,,,-99.99,,2013-01-29 05:43:00,
2013-01-28 23:52:00,66.0,-99.9,-100.00,SSE,150,8.0,-999.0,-999,0.00,,,-99.99,,2013-01-29 05:52:00,